period_start,C,m1,H,J0,J1,J2,J3,J4,J5,JA,JB,JC,JD,JJ,JK,JN,#
2017-10-05 00:03:09,0.01,0.12,0.00,19.09,22.75,26.02,14.10,45.66,1012.72,2050.18,3475.04,3101.03,3553.00,600.19,601.90,23.99,0000 0000 0000 0000 000000
2017-10-05 00:08:10,0.00,0.12,0.00,19.11,22.76,26.02,14.10,45.59,1012.72,2050.20,3475.01,3101.02,3552.99,600.20,601.74,24.04,0000 0000 0000 0000 000000
2017-10-05 00:13:11,-0.01,0.12,0.00,19.08,22.77,26.00,14.10,45.80,1012.71,2050.10,3474.99,3101.00,3552.84,599.71,601.55,24.09,0000 0000 0000 0000 000000
2017-10-05 00:18:12,0.01,0.12,0.00,19.10,22.77,26.02,14.08,45.79,1012.71,2050.09,3474.96,3101.00,3552.63,599.91,601.62,24.14,0000 0000 0000 0000 000000
2017-10-05 00:23:13,0.01,0.12,0.00,19.12,22.77,26.02,14.10,45.76,1012.71,2050.07,3474.67,3100.99,3552.16,599.94,601.58,24.19,0000 0000 0000 0000 000000
2017-10-05 00:28:15,0.01,0.12,0.00,19.17,22.77,26.02,14.01,45.66,1012.71,2050.11,3474.24,3100.98,3552.03,599.67,601.24,24.24,0000 0000 0000 0000 000000
2017-10-05 00:33:16,0.01,0.12,0.00,19.12,22.77,25.99,14.10,45.68,1012.71,2050.12,3474.04,3100.95,3552.01,600.04,601.69,24.29,0000 0000 0000 0000 000000
2017-10-05 00:38:17,0.01,0.12,0.00,19.13,22.77,26.02,14.13,45.70,1012.71,2050.09,3474.01,3100.68,3552.00,600.80,602.26,24.34,0000 0000 0000 0000 000000
2017-10-05 00:43:18,0.01,0.12,0.00,19.14,22.78,26.02,14.08,45.63,1012.71,2050.05,3473.99,3100.12,3552.00,600.19,601.83,24.40,0000 0000 0000 0000 000000
2017-10-05 00:48:20,0.00,0.12,0.00,19.16,22.79,26.05,14.11,45.69,1012.71,2050.08,3473.96,3100.04,3551.99,599.95,601.45,24.45,0000 0000 0000 0000 000000
2017-10-05 00:53:21,0.01,0.12,0.00,19.19,22.79,26.02,14.01,45.63,1012.71,2050.04,3473.48,3100.00,3551.71,599.73,601.23,24.50,0000 0000 0000 0000 000000
2017-10-05 00:58:23,0.01,0.12,0.00,19.15,22.79,26.06,14.08,45.64,1012.71,2050.03,3473.02,3100.00,3551.10,600.07,601.61,24.55,0000 0000 0000 0000 000000
2017-10-05 01:03:24,0.00,0.12,0.00,19.20,22.80,26.02,14.07,45.48,1012.71,2050.04,3473.00,3100.00,3551.04,599.82,601.28,24.60,0000 0000 0000 0000 000000
2017-10-05 01:08:25,0.00,0.12,0.00,19.18,22.81,26.05,14.09,45.64,1012.70,2050.03,3472.97,3099.96,3551.00,599.89,601.33,24.65,0000 0000 0000 0000 000000
2017-10-05 01:13:26,0.02,0.12,0.00,19.23,22.82,26.06,14.08,45.57,1012.71,2050.01,3472.46,3099.47,3550.92,600.19,601.59,24.70,0000 0000 0000 0000 000000
2017-10-05 01:18:28,0.02,0.12,0.00,19.18,22.82,26.07,14.15,45.78,1012.70,2050.00,3472.04,3099.07,3550.39,600.15,601.62,24.75,0000 0000 0000 0000 000000
2017-10-05 01:23:29,0.00,0.12,0.00,19.22,22.82,26.05,14.03,45.63,1012.70,2050.02,3472.01,3099.02,3550.11,599.60,600.99,24.80,0000 0000 0000 0000 000000
2017-10-05 01:28:30,0.00,0.12,0.00,19.23,22.84,26.06,14.02,45.59,1012.70,2050.02,3471.98,3099.00,3550.02,600.03,601.37,24.85,0000 0000 0000 0000 000000
2017-10-05 01:33:32,0.00,0.12,0.00,19.27,22.84,26.07,13.97,45.60,1012.67,2050.01,3471.60,3098.99,3550.00,599.76,601.03,24.90,0000 0000 0000 0000 000000
2017-10-05 01:38:33,0.01,0.12,0.00,19.24,22.85,26.09,14.09,45.76,1012.65,2050.00,3471.03,3098.95,3549.94,600.30,601.67,24.95,0000 0000 0000 0000 000000
2017-10-05 01:43:34,0.02,0.12,0.00,19.27,22.86,26.11,14.03,45.76,1012.63,2050.00,3470.99,3098.56,3549.32,599.86,601.12,25.00,0000 0000 0000 0000 000000
2017-10-05 01:48:35,0.01,0.12,0.00,19.28,22.87,26.12,14.08,45.67,1012.63,2050.00,3470.84,3098.06,3549.01,600.36,601.69,25.05,0000 0000 0000 0000 000000
2017-10-05 01:53:37,0.01,0.13,0.00,19.30,22.87,26.12,14.07,45.61,1012.63,2050.00,3470.13,3098.00,3549.00,600.30,601.61,25.10,0000 0000 0000 0000 000000
2017-10-05 01:58:38,0.00,0.13,0.00,19.33,22.88,26.08,13.98,45.67,1012.65,2050.00,3470.00,3097.99,3548.95,599.66,600.71,25.15,0000 0000 0000 0000 000000
2017-10-05 02:03:39,0.01,0.13,0.00,19.29,22.89,26.13,14.09,45.70,1012.59,2050.00,3469.98,3097.95,3548.36,600.35,601.55,25.20,0000 0000 0000 0000 000000
2017-10-05 02:08:41,0.02,0.13,0.00,19.36,22.90,26.13,14.04,45.63,1012.50,2050.00,3469.55,3097.69,3548.03,600.26,601.13,25.25,0000 0000 0000 0000 000000
2017-10-05 02:13:42,0.01,0.13,0.00,19.35,22.92,26.14,14.08,45.72,1012.34,2049.99,3469.03,3097.10,3547.99,599.60,600.71,25.30,0000 0000 0000 0000 000000
2017-10-05 02:18:43,0.00,0.13,0.00,19.37,22.92,26.12,14.03,45.61,1012.29,2049.97,3468.98,3097.00,3547.88,599.82,600.65,25.35,0000 0000 0000 0000 000000
2017-10-05 02:23:44,0.02,0.13,0.00,19.40,22.93,26.11,14.08,45.63,1012.24,2049.98,3468.40,3096.98,3547.20,600.32,601.08,25.40,0000 0000 0000 0000 000000
2017-10-05 02:28:46,0.01,0.13,0.00,19.37,22.94,26.16,14.13,45.55,1012.22,2049.98,3468.01,3096.90,3547.00,600.99,601.81,25.45,0000 0000 0000 0000 000000
2017-10-05 02:33:47,0.03,0.13,0.00,19.42,22.95,26.14,14.04,45.60,1012.22,2049.97,3467.80,3096.18,3546.90,599.99,600.75,25.50,0000 0000 0000 0000 000000
2017-10-05 02:38:48,0.02,0.13,0.00,19.41,22.97,26.16,14.11,45.63,1012.22,2049.96,3467.06,3096.00,3546.11,600.70,601.48,25.55,0000 0000 0000 0000 000000
2017-10-05 02:43:49,0.01,0.13,0.00,19.47,22.98,26.20,14.05,45.67,1012.22,2049.93,3466.55,3095.86,3545.99,599.88,600.50,25.60,0000 0000 0000 0000 000000
2017-10-05 02:48:50,0.03,0.13,0.00,19.42,22.99,26.18,14.10,45.58,1012.22,2049.94,3466.03,3095.20,3545.53,600.13,600.80,25.65,0000 0000 0000 0000 000000
2017-10-05 02:53:52,0.01,0.14,0.00,19.45,23.00,26.21,14.00,45.65,1012.22,2049.93,3465.37,3095.00,3545.03,599.49,599.93,25.70,0000 0000 0000 0000 000000
2017-10-05 02:58:53,0.01,0.14,0.00,19.42,23.02,26.23,14.09,45.71,1012.22,2049.76,3464.86,3094.67,3544.56,600.00,600.68,25.75,0000 0000 0000 0000 000000
2017-10-05 03:03:54,-0.01,0.14,0.00,19.49,23.02,26.24,14.13,45.70,1012.22,2049.46,3464.06,3094.03,3544.01,600.28,600.95,25.80,0000 0000 0000 0000 000000
2017-10-05 03:08:56,0.02,0.14,0.00,19.49,23.04,26.25,14.10,45.63,1012.22,2049.31,3463.46,3093.91,3543.61,600.44,601.04,25.85,0000 0000 0000 0000 000000
2017-10-05 03:13:57,0.02,0.14,0.00,19.48,23.05,26.24,13.98,45.58,1012.22,2049.19,3463.00,3093.24,3543.03,599.95,600.55,25.90,0000 0000 0000 0000 000000
2017-10-05 03:18:58,0.01,0.14,0.00,19.46,23.07,26.26,14.07,45.52,1012.22,2049.11,3462.39,3093.01,3542.88,600.48,601.11,25.95,0000 0000 0000 0000 000000
2017-10-05 03:24:00,0.01,0.14,0.00,19.48,23.07,26.29,14.02,45.61,1012.22,2049.05,3461.94,3092.90,3542.11,599.82,600.46,26.00,0000 0000 0000 0000 000000
2017-10-05 03:29:01,0.03,0.14,0.00,19.54,23.09,26.28,14.04,45.52,1012.22,2049.03,3461.17,3092.16,3541.98,600.22,600.75,26.05,0000 0000 0000 0000 000000
2017-10-05 03:34:02,0.02,0.14,0.00,19.55,23.10,26.31,14.04,45.51,1012.22,2049.03,3460.73,3092.00,3541.22,599.99,600.64,26.10,0000 0000 0000 0000 000000
2017-10-05 03:39:03,0.03,0.14,0.00,19.59,23.12,26.29,14.03,45.44,1012.22,2049.00,3459.96,3091.42,3540.87,599.82,600.16,26.15,0000 0000 0000 0000 000000
2017-10-05 03:44:05,0.02,0.15,0.00,19.59,23.13,26.29,14.05,45.59,1012.22,2049.00,3459.12,3091.01,3540.09,599.87,600.35,26.20,0000 0000 0000 0000 000000
2017-10-05 03:49:06,0.03,0.15,0.00,19.58,23.14,26.32,14.00,45.51,1012.22,2049.00,3458.45,3090.61,3539.77,600.11,600.61,26.25,0000 0000 0000 0000 000000
2017-10-05 03:54:07,0.02,0.15,0.00,19.58,23.16,26.35,14.03,45.67,1012.22,2049.00,3457.93,3090.02,3539.04,599.89,600.29,26.30,0000 0000 0000 0000 000000
2017-10-05 03:59:09,0.01,0.15,0.00,19.61,23.17,26.37,14.02,45.67,1012.22,2049.00,3457.10,3089.96,3538.91,600.17,600.50,26.35,0000 0000 0000 0000 000000
2017-10-05 04:04:10,0.04,0.15,0.00,19.63,23.19,26.39,13.98,45.59,1012.22,2049.00,3456.68,3089.33,3538.18,600.11,600.43,26.40,0000 0000 0000 0000 000000
2017-10-05 04:09:11,0.01,0.15,0.00,19.65,23.20,26.38,14.04,45.49,1012.22,2048.98,3456.02,3089.00,3537.93,600.26,600.56,26.45,0000 0000 0000 0000 000000
2017-10-05 04:14:13,0.04,0.15,0.00,19.67,23.22,26.38,14.03,45.49,1012.22,2048.98,3455.31,3088.70,3537.14,600.10,600.31,26.50,0000 0000 0000 0000 000000
2017-10-05 04:19:14,0.01,0.15,0.00,19.63,23.23,26.43,14.05,45.54,1012.21,2048.96,3454.95,3088.04,3536.91,600.11,600.43,26.55,0000 0000 0000 0000 000000
2017-10-05 04:24:16,0.01,0.16,0.00,19.63,23.24,26.42,14.08,45.56,1012.21,2048.85,3454.20,3087.98,3536.18,600.63,600.96,26.60,0000 0000 0000 0000 000000
2017-10-05 04:29:17,0.01,0.16,0.00,19.62,23.26,26.49,14.02,45.63,1012.22,2048.67,3453.93,3087.42,3536.00,599.91,600.28,26.65,0000 0000 0000 0000 000000
2017-10-05 04:34:18,-0.01,0.16,0.00,19.69,23.27,26.46,14.07,45.53,1012.22,2048.39,3453.15,3087.01,3535.67,600.65,600.81,26.70,0000 0000 0000 0000 000000
2017-10-05 04:39:20,0.01,0.16,0.00,19.68,23.29,26.48,13.97,45.60,1012.22,2048.32,3452.95,3086.99,3535.06,599.70,599.91,26.75,0000 0000 0000 0000 000000
2017-10-05 04:44:21,0.01,0.16,0.00,19.70,23.29,26.47,14.06,45.70,1012.21,2048.11,3452.16,3086.57,3534.92,599.98,600.22,26.80,0000 0000 0000 0000 000000
2017-10-05 04:49:22,0.01,0.16,0.00,19.67,23.31,26.52,14.04,45.61,1012.20,2048.06,3451.96,3086.04,3534.30,600.04,600.11,26.85,0000 0000 0000 0000 000000
2017-10-05 04:54:23,0.01,0.16,0.00,19.70,23.32,26.54,14.01,45.52,1012.19,2048.04,3451.29,3085.99,3534.00,600.17,600.35,26.90,0000 0000 0000 0000 000000
2017-10-05 04:59:25,0.02,0.16,0.00,19.70,23.33,26.55,14.01,45.69,1012.20,2048.02,3450.97,3085.64,3533.64,600.04,600.24,26.96,0000 0000 0000 0000 000000
2017-10-05 05:04:26,0.03,0.16,0.00,19.75,23.34,26.56,13.99,45.54,1012.19,2048.01,3450.35,3085.11,3533.08,600.26,600.27,27.01,0000 0000 0000 0000 000000
2017-10-05 05:09:27,0.00,0.16,0.00,19.76,23.35,26.53,14.07,45.67,1012.19,2048.00,3449.99,3085.00,3532.98,600.27,600.20,27.06,0000 0000 0000 0000 000000
2017-10-05 05:14:29,0.03,0.16,0.00,19.74,23.37,26.57,14.02,45.58,1012.21,2048.00,3449.39,3084.91,3532.42,599.91,599.97,27.11,0000 0000 0000 0000 000000
2017-10-05 05:19:30,0.02,0.16,0.00,19.79,23.37,26.59,14.01,45.58,1012.21,2048.00,3449.00,3084.34,3532.01,599.66,599.63,27.16,0000 0000 0000 0000 000000
2017-10-05 05:24:32,0.01,0.16,0.00,19.76,23.38,26.56,14.07,45.54,1012.22,2047.99,3448.51,3084.01,3531.96,600.26,600.13,27.21,0000 0000 0000 0000 000000
2017-10-05 05:29:33,0.02,0.16,0.00,19.78,23.39,26.62,14.07,45.63,1012.22,2047.99,3447.99,3083.88,3531.22,599.70,599.72,27.26,0000 0000 0000 0000 000000
2017-10-05 05:34:34,0.03,0.17,0.00,19.77,23.40,26.63,13.98,45.58,1012.22,2047.98,3447.19,3083.13,3530.97,599.69,599.62,27.31,0000 0000 0000 0000 000000
2017-10-05 05:39:35,0.02,0.17,0.00,19.85,23.42,26.63,14.09,45.60,1012.22,2047.98,3446.59,3082.98,3530.14,600.08,600.06,27.36,0000 0000 0000 0000 000000
2017-10-05 05:44:36,0.05,0.17,0.00,19.83,23.42,26.62,14.08,45.46,1012.22,2047.98,3445.53,3082.29,3529.62,600.14,600.10,27.41,0000 0000 0000 0000 000000
2017-10-05 05:49:38,0.03,0.17,0.00,19.81,23.44,26.62,13.98,45.40,1012.22,2047.96,3444.43,3081.78,3528.94,599.78,599.75,27.46,0000 0000 0000 0000 000000
2017-10-05 05:54:39,0.02,0.17,0.00,19.83,23.45,26.66,14.04,45.64,1012.22,2047.81,3443.50,3081.02,3528.08,600.20,599.96,27.51,0000 0000 0000 0000 000000
2017-10-05 05:59:40,0.05,0.18,0.00,19.82,23.46,26.67,14.04,45.52,1012.22,2047.80,3442.22,3080.25,3527.32,599.77,599.66,27.56,0000 0000 0000 0000 000000
2017-10-05 06:04:42,0.02,0.18,0.00,19.85,23.47,26.68,13.98,45.61,1012.22,2047.50,3440.93,3079.57,3526.40,599.77,599.54,27.61,0000 0000 0000 0000 000000
2017-10-05 06:09:42,0.04,0.18,0.00,19.81,23.47,26.71,13.97,45.56,1012.22,2047.50,3439.81,3078.99,3525.69,599.50,599.44,27.66,0000 0000 0000 0000 000000
2017-10-05 06:14:43,0.04,0.18,0.00,19.88,23.49,26.73,14.04,45.62,1012.22,2047.32,3438.88,3078.22,3524.99,599.49,599.27,27.71,0000 0000 0000 0000 000000
2017-10-05 06:19:45,0.03,0.18,0.00,19.88,23.50,26.70,13.97,45.54,1012.22,2047.14,3437.74,3077.77,3524.13,599.83,599.66,27.76,0000 0000 0000 0000 000000
2017-10-05 06:24:46,0.02,0.18,0.00,19.87,23.50,26.69,14.03,45.45,1012.22,2047.09,3436.88,3077.07,3523.65,600.19,600.00,27.81,0000 0000 0000 0000 000000
2017-10-05 06:29:47,0.03,0.19,0.00,19.87,23.52,26.74,14.04,45.56,1012.22,2047.10,3435.96,3076.81,3523.00,599.95,599.71,27.86,0000 0000 0000 0000 000000
2017-10-05 06:34:48,0.04,0.19,0.00,19.86,23.52,26.77,14.06,45.54,1012.22,2047.02,3434.91,3076.04,3522.16,599.85,599.68,27.91,0000 0000 0000 0000 000000
2017-10-05 06:39:50,0.04,0.19,0.00,19.88,23.52,26.75,13.93,45.52,1012.23,2047.02,3434.02,3075.41,3521.65,599.76,599.60,27.96,0000 0000 0000 0000 000000
2017-10-05 06:44:51,0.02,0.19,0.00,19.86,23.54,26.76,14.05,45.52,1012.23,2047.04,3433.28,3075.01,3521.04,600.40,600.14,28.01,0000 0000 0000 0000 000000
2017-10-05 06:49:52,0.00,0.19,0.00,19.92,23.55,26.77,14.03,45.48,1012.22,2047.03,3432.94,3074.98,3520.94,600.23,600.00,28.06,0000 0000 0000 0000 000000
2017-10-05 06:54:53,0.04,0.19,0.00,19.91,23.55,26.80,14.11,45.52,1012.22,2047.00,3432.12,3074.37,3520.19,600.24,599.98,28.11,0000 0000 0000 0000 000000
2017-10-05 06:59:54,0.01,0.19,0.00,19.94,23.57,26.77,14.03,45.41,1012.22,2047.00,3431.54,3074.00,3519.93,600.02,599.67,28.16,0000 0000 0000 0000 000000
2017-10-05 07:04:56,0.03,0.20,0.00,19.92,23.57,26.80,14.03,45.60,1012.22,2047.00,3430.78,3073.68,3519.16,599.86,599.57,28.21,0000 0000 0000 0000 000000
2017-10-05 07:09:57,0.02,0.20,0.00,19.93,23.57,26.82,14.08,45.53,1012.22,2047.00,3430.02,3073.04,3518.99,600.13,599.95,28.26,0000 0000 0000 0000 000000
2017-10-05 07:14:58,0.02,0.20,0.00,19.93,23.59,26.80,14.00,45.58,1012.22,2047.00,3429.22,3072.99,3518.55,600.03,599.66,28.31,0000 0000 0000 0000 000000
2017-10-05 07:19:59,0.03,0.20,0.00,19.93,23.60,26.82,14.02,45.50,1012.23,2047.00,3428.87,3072.44,3518.02,599.60,599.24,28.36,0000 0000 0000 0000 000000
2017-10-05 07:25:01,0.02,0.20,0.00,19.95,23.60,26.83,14.01,45.42,1012.22,2047.00,3428.07,3072.02,3517.66,599.77,599.48,28.41,0000 0000 0000 0000 000000
2017-10-05 07:30:02,0.01,0.20,0.00,19.92,23.60,26.84,14.03,45.52,1012.22,2047.00,3427.68,3071.99,3517.07,600.12,600.04,28.46,0000 0000 0000 0000 000000
2017-10-05 07:35:04,0.02,0.20,0.00,19.99,23.60,26.82,14.02,45.52,1012.23,2047.00,3427.03,3071.57,3516.98,599.73,599.29,28.51,0000 0000 0000 0000 000000
2017-10-05 07:40:05,0.03,0.21,0.00,19.97,23.62,26.83,14.00,45.42,1012.23,2047.00,3426.47,3071.02,3516.49,599.96,599.55,28.56,0000 0000 0000 0000 000000
2017-10-05 07:45:06,0.02,0.21,0.00,19.96,23.62,26.84,13.98,45.51,1012.23,2047.00,3425.69,3070.83,3515.87,599.32,599.09,28.61,0000 0000 0000 0000 000000
2017-10-05 07:50:07,0.14,0.21,0.00,19.97,23.62,26.83,13.99,45.58,1012.24,2047.00,3423.09,3069.17,3514.00,599.81,599.48,28.66,0000 0000 0000 0000 000000
2017-10-05 07:55:09,0.11,0.22,0.00,19.96,23.62,26.86,14.03,45.52,1012.25,2047.00,3419.89,3067.15,3511.76,600.10,599.74,28.71,0000 0000 0000 0000 000000
2017-10-05 08:00:10,0.07,0.22,0.00,19.97,23.63,26.86,14.02,45.45,1012.25,2047.00,3418.14,3066.04,3510.49,600.16,599.69,28.76,0000 0000 0000 0000 000000
2017-10-05 08:05:11,0.05,0.23,0.00,19.94,23.64,26.89,14.00,45.58,1012.27,2047.00,3416.94,3065.12,3509.73,599.68,599.43,28.81,0000 0000 0000 0000 000000
2017-10-05 08:10:12,0.47,0.24,0.00,19.97,23.64,26.91,14.06,45.52,1012.25,2047.00,3410.17,3060.33,3504.13,599.91,599.53,28.86,0000 0000 0000 0000 000000
2017-10-05 08:15:14,0.52,0.27,0.00,19.97,23.65,26.87,14.03,45.54,1012.30,2047.00,3397.85,3051.50,3494.32,599.67,599.53,28.91,0000 0000 0000 0000 000000
2017-10-05 08:20:15,0.72,0.30,0.00,19.96,23.65,26.87,14.10,45.58,1012.33,2047.00,3384.03,3041.66,3483.31,600.15,599.83,28.96,0000 0000 0000 0000 000000
2017-10-05 08:25:17,0.59,0.33,0.00,19.99,23.65,26.88,14.07,45.67,1012.32,2046.99,3369.85,3031.74,3472.13,600.44,600.05,29.01,0000 0000 0000 0000 000000
2017-10-05 08:30:18,0.47,0.36,0.00,19.97,23.65,26.92,13.98,45.59,1012.31,2046.99,3359.12,3024.24,3463.66,599.41,598.87,29.06,0000 0000 0000 0000 000000
2017-10-05 08:35:19,0.44,0.38,0.00,19.98,23.66,26.87,14.00,45.63,1012.41,2046.98,3349.40,3017.61,3456.07,599.57,599.25,29.11,0000 0000 0000 0000 000000
2017-10-05 08:40:21,0.26,0.40,0.00,19.94,23.67,26.90,14.11,45.69,1012.46,2046.96,3342.46,3012.78,3450.65,600.43,600.21,29.16,0000 0000 0000 0000 000000
2017-10-05 08:45:21,0.14,0.41,0.00,19.95,23.67,26.91,14.09,45.87,1012.62,2046.96,3339.11,3010.55,3448.01,600.10,600.03,29.21,0000 0000 0000 0000 000000
2017-10-05 08:50:22,0.17,0.41,0.00,19.97,23.67,26.91,14.03,45.59,1012.69,2046.97,3335.86,3008.35,3445.37,599.99,599.95,29.26,0000 0000 0000 0000 000000
2017-10-05 08:55:24,0.24,0.43,0.00,19.97,23.67,26.90,13.96,45.70,1012.71,2046.98,3330.72,3004.92,3441.24,599.48,599.36,29.31,0000 0000 0000 0000 000000
2017-10-05 09:00:25,0.29,0.44,0.00,20.01,23.67,26.87,14.06,45.55,1012.70,2046.96,3324.74,3000.65,3436.12,600.39,600.19,29.36,0000 0000 0000 0000 000000
2017-10-05 09:05:26,0.22,0.45,0.00,19.98,23.67,26.90,14.04,45.55,1012.71,2046.96,3319.96,2997.33,3432.18,599.78,599.57,29.41,0000 0000 0000 0000 000000
2017-10-05 09:10:27,0.14,0.46,0.00,20.01,23.67,26.90,14.06,45.44,1012.71,2046.92,3316.39,2994.86,3429.23,599.84,599.66,29.46,0000 0000 0000 0000 000000
2017-10-05 09:15:29,0.13,0.47,0.00,20.00,23.67,26.91,14.07,45.56,1012.71,2046.94,3313.60,2993.01,3427.08,600.07,599.89,29.51,0000 0000 0000 0000 000000
2017-10-05 09:20:30,0.14,0.47,0.00,19.97,23.68,26.91,14.01,45.52,1012.71,2046.88,3310.45,2990.89,3424.51,600.07,599.94,29.56,0000 0000 0000 0000 000000
2017-10-05 09:25:31,0.21,0.48,0.00,19.98,23.68,26.90,14.05,45.55,1012.71,2046.84,3305.89,2988.01,3420.93,600.14,600.02,29.62,0000 0000 0000 0000 000000
2017-10-05 09:30:32,0.12,0.49,0.00,19.98,23.69,26.91,14.04,45.59,1012.71,2046.83,3302.56,2985.81,3418.35,600.08,599.85,29.67,0000 0000 0000 0000 000000
2017-10-05 09:35:33,0.11,0.50,0.00,20.01,23.70,26.91,14.01,45.70,1012.71,2046.87,3300.08,2984.27,3416.38,599.61,599.45,29.72,0000 0000 0000 0000 000000
2017-10-05 09:40:34,0.05,0.50,0.00,19.97,23.70,26.93,14.08,45.55,1012.71,2046.82,3298.69,2983.33,3415.46,600.26,600.09,29.77,0000 0000 0000 0000 000000
2017-10-05 09:45:35,0.05,0.50,0.00,19.99,23.70,26.95,14.08,45.64,1012.71,2046.75,3297.41,2982.58,3414.58,599.92,599.77,29.82,0000 0000 0000 0000 000000
2017-10-05 09:50:37,0.06,0.51,0.00,19.98,23.70,26.94,14.01,45.69,1012.71,2046.84,3296.14,2981.65,3413.54,599.47,599.33,29.87,0000 0000 0000 0000 000000
2017-10-05 09:55:38,0.10,0.51,0.00,19.97,23.70,26.94,14.01,45.59,1012.71,2046.83,3293.99,2980.20,3411.98,600.01,599.90,29.92,0000 0000 0000 0000 000000
2017-10-05 10:00:39,0.16,0.52,0.00,19.98,23.70,26.92,14.00,45.67,1012.71,2046.79,3290.87,2978.35,3409.64,599.87,599.73,29.97,0000 0000 0000 0000 000000
2017-10-05 10:05:40,0.04,0.52,0.00,19.96,23.70,26.95,13.98,45.77,1012.71,2046.44,3288.15,2976.87,3407.70,599.72,599.63,30.02,0000 0000 0000 0000 000000
2017-10-05 10:10:41,0.02,0.53,0.00,20.01,23.70,26.93,14.01,45.65,1012.71,2046.33,3287.66,2976.11,3407.04,600.09,599.98,30.07,0000 0000 0000 0000 000000
2017-10-05 10:15:43,0.04,0.53,0.00,19.99,23.70,26.95,14.03,45.66,1012.72,2046.15,3286.64,2975.73,3406.42,599.83,599.75,30.12,0000 0000 0000 0000 000000
2017-10-05 10:20:44,0.07,0.53,0.00,20.00,23.70,26.95,14.06,45.80,1012.72,2046.12,3284.98,2974.56,3405.08,599.86,599.69,30.17,0000 0000 0000 0000 000000
2017-10-05 10:25:45,0.08,0.53,0.00,19.99,23.70,26.94,14.02,45.56,1012.73,2046.09,3283.15,2973.47,3403.75,600.05,599.95,30.22,0000 0000 0000 0000 000000
2017-10-05 10:30:47,0.06,0.54,0.00,19.97,23.70,26.93,14.05,45.66,1012.74,2046.09,3281.61,2972.46,3402.66,599.95,599.86,30.27,0000 0000 0000 0000 000000
2017-10-05 10:35:48,0.07,0.54,0.00,19.98,23.70,26.96,14.03,45.70,1012.77,2046.09,3279.95,2971.52,3401.49,600.14,599.92,30.32,0000 0000 0000 0000 000000
2017-10-05 10:40:49,0.08,0.55,0.00,19.98,23.71,26.98,14.07,45.78,1012.78,2046.16,3278.03,2970.38,3400.24,600.03,599.96,30.37,0000 0000 0000 0000 000000
2017-10-05 10:45:51,0.13,0.55,0.00,19.98,23.72,26.96,14.04,45.63,1012.78,2046.23,3275.38,2968.92,3398.57,600.02,599.93,30.42,0000 0000 0000 0000 000000
2017-10-05 10:50:52,0.05,0.56,0.00,19.99,23.72,26.94,14.08,45.70,1012.77,2046.14,3273.26,2967.77,3397.12,600.15,599.93,30.47,0000 0000 0000 0000 000000
2017-10-05 10:55:53,0.05,0.56,0.00,19.99,23.72,26.93,14.12,45.73,1012.74,2046.14,3272.09,2967.03,3396.24,600.32,600.16,30.52,0000 0000 0000 0000 000000
2017-10-05 11:00:54,0.05,0.56,0.00,20.01,23.72,26.94,14.07,45.67,1012.76,2046.10,3270.93,2966.19,3395.36,600.12,599.89,30.57,0000 0000 0000 0000 000000
2017-10-05 11:05:56,0.03,0.56,0.00,19.97,23.72,26.94,14.01,45.55,1012.76,2046.15,3270.04,2965.80,3394.88,599.94,599.84,30.62,0000 0000 0000 0000 000000
2017-10-05 11:10:57,0.03,0.56,0.00,20.02,23.72,26.93,14.03,45.78,1012.76,2046.04,3269.27,2965.06,3394.07,599.57,599.48,30.67,0000 0000 0000 0000 000000
2017-10-05 11:15:58,0.01,0.57,0.00,19.99,23.72,26.95,14.09,45.73,1012.85,2046.08,3268.80,2964.97,3393.89,600.78,600.71,30.72,0000 0000 0000 0000 000000
2017-10-05 11:21:00,0.04,0.57,0.00,19.98,23.72,26.95,14.05,45.79,1012.92,2046.09,3268.05,2964.37,3393.13,600.27,600.16,30.77,0000 0000 0000 0000 000000
2017-10-05 11:26:01,0.01,0.57,0.00,19.98,23.72,26.96,14.06,45.76,1012.93,2046.07,3267.31,2964.00,3392.90,600.42,600.36,30.82,0000 0000 0000 0000 000000
2017-10-05 11:31:02,0.03,0.57,0.00,20.00,23.73,26.97,14.05,45.81,1013.00,2046.05,3266.89,2963.71,3392.13,599.88,599.88,30.87,0000 0000 0000 0000 000000
2017-10-05 11:36:04,0.03,0.57,0.00,20.03,23.74,26.97,14.03,45.77,1013.02,2046.05,3266.07,2963.05,3391.87,600.20,600.19,30.92,0000 0000 0000 0000 000000
2017-10-05 11:41:05,0.03,0.57,0.00,19.99,23.74,26.96,13.96,45.66,1013.04,2046.03,3265.27,2962.83,3391.08,599.98,600.01,30.97,0000 0000 0000 0000 000000
2017-10-05 11:46:06,0.02,0.58,0.00,20.01,23.75,26.97,14.05,45.88,1012.98,2046.02,3264.78,2962.07,3390.99,599.67,599.69,31.02,0000 0000 0000 0000 000000
2017-10-05 11:51:07,0.01,0.58,0.00,19.97,23.75,26.96,14.09,45.77,1013.06,2046.05,3264.07,2962.00,3390.72,600.35,600.38,31.07,0000 0000 0000 0000 000000
2017-10-05 11:56:09,0.01,0.58,0.00,19.99,23.75,26.92,14.02,45.79,1013.15,2046.03,3263.98,2961.89,3390.07,599.94,600.00,31.12,0000 0000 0000 0000 000000
2017-10-05 12:01:10,0.03,0.58,0.00,19.98,23.75,26.94,14.06,45.73,1013.16,2046.00,3263.16,2961.13,3389.91,600.19,600.26,31.17,0000 0000 0000 0000 000000
2017-10-05 12:06:11,0.01,0.58,0.00,19.98,23.75,26.97,14.05,45.78,1013.17,2046.01,3262.97,2961.00,3389.24,600.21,600.30,31.22,0000 0000 0000 0000 000000
2017-10-05 12:11:13,0.01,0.58,0.00,20.04,23.75,26.98,14.06,45.93,1013.19,2046.00,3262.25,2960.87,3389.00,600.25,600.19,31.27,0000 0000 0000 0000 000000
2017-10-05 12:16:15,0.02,0.58,0.00,20.01,23.75,26.95,14.04,45.92,1013.19,2046.00,3262.00,2960.15,3388.85,599.71,599.84,31.32,0000 0000 0000 0000 000000
2017-10-05 12:21:16,0.01,0.58,0.00,20.03,23.76,26.98,14.02,45.69,1013.19,2046.00,3261.67,2960.01,3388.21,600.04,600.01,31.37,0000 0000 0000 0000 000000
2017-10-05 12:26:18,0.01,0.58,0.00,20.00,23.77,26.98,14.00,45.76,1013.19,2046.00,3261.03,2960.00,3388.01,599.65,599.66,31.42,0000 0000 0000 0000 000000
2017-10-05 12:31:19,0.01,0.58,0.00,20.00,23.77,27.00,14.04,45.86,1013.20,2046.00,3260.84,2959.77,3387.96,599.91,599.91,31.47,0000 0000 0000 0000 000000
2017-10-05 12:36:21,0.04,0.59,0.00,20.02,23.77,26.99,14.07,45.85,1013.20,2046.01,3260.08,2959.14,3387.38,600.09,600.24,31.52,0000 0000 0000 0000 000000
2017-10-05 12:41:23,0.00,0.59,0.00,19.98,23.77,27.01,14.06,45.92,1013.20,2046.00,3259.98,2959.00,3387.01,600.26,600.30,31.57,0000 0000 0000 0000 000000
2017-10-05 12:46:24,0.01,0.59,0.00,20.00,23.77,26.98,14.10,45.77,1013.20,2046.00,3259.64,2958.99,3387.00,600.05,600.16,31.62,0000 0000 0000 0000 000000
2017-10-05 12:51:25,0.00,0.59,0.00,20.02,23.77,26.99,14.04,45.91,1013.20,2046.00,3259.06,2958.91,3386.93,600.21,600.24,31.67,0000 0000 0000 0000 000000
2017-10-05 12:56:26,0.00,0.59,0.00,20.04,23.77,26.99,14.07,45.85,1013.20,2046.00,3259.01,2958.79,3386.70,599.89,599.82,31.72,0000 0000 0000 0000 000000